OEFIC LOWI-LOWW

Flight info

Callsign OEFIC
Flight time 1h 1m
Altitude 27000
Route RTT DCT NEMAL NEMAL2W
Aircraft B60T/L-SDFGRWY/S

Departure

Time 2026-04-22 19:26
Airport Innsbruck Airport (LOWI)

Arrival

Time 2026-04-22 20:28
Airport Vienna International Airport (LOWW)
Time Latitude Longitude Altitude Speed Heading
2026-04-22 19:09 47.25740 11.34570 1893 ft 0 kts 328°
2026-04-22 19:17 47.25750 11.34558 1893 ft 4 kts 311°
2026-04-22 19:17 47.25772 11.34535 1893 ft 8 kts 346°
2026-04-22 19:17 47.25819 11.34493 1890 ft 9 kts 262°
2026-04-22 19:18 47.25805 11.34387 1889 ft 13 kts 261°
2026-04-22 19:18 47.25792 11.34264 1888 ft 10 kts 261°
2026-04-22 19:18 47.25778 11.34134 1888 ft 13 kts 261°
2026-04-22 19:18 47.25770 11.34030 1893 ft 8 kts 271°
2026-04-22 19:19 47.25778 11.33954 1893 ft 7 kts 292°
2026-04-22 19:19 47.25783 11.33939 1889 ft 0 kts 296°
2026-04-22 19:22 47.25802 11.33895 1891 ft 5 kts 306°
2026-04-22 19:22 47.25813 11.33873 1893 ft 0 kts 306°
2026-04-22 19:23 47.25814 11.33870 1893 ft 0 kts 306°
2026-04-22 19:25 47.25822 11.33855 1884 ft 7 kts 305°
2026-04-22 19:25 47.25872 11.33753 1894 ft 17 kts 306°
2026-04-22 19:25 47.25929 11.33689 1901 ft 4 kts 12°
2026-04-22 19:25 47.25949 11.33721 1893 ft 0 kts 85°
2026-04-22 19:26 47.25955 11.33794 1898 ft 37 kts 82°
2026-04-22 19:26 47.26027 11.34577 1998 ft 104 kts 83°
2026-04-22 19:26 47.26104 11.35709 2633 ft 115 kts 81°
2026-04-22 19:26 47.26278 11.37020 3167 ft 141 kts 75°
2026-04-22 19:27 47.26534 11.38436 3929 ft 145 kts 75°
2026-04-22 19:27 47.26780 11.39881 4688 ft 144 kts 77°
2026-04-22 19:27 47.26990 11.41314 5460 ft 144 kts 81°
2026-04-22 19:27 47.27125 11.42749 6262 ft 139 kts 80°
2026-04-22 19:28 47.27287 11.44123 7007 ft 135 kts 78°
2026-04-22 19:28 47.27520 11.45461 7656 ft 136 kts 73°
2026-04-22 19:28 47.27780 11.46824 8243 ft 142 kts 73°
2026-04-22 19:28 47.28059 11.48306 8696 ft 157 kts 73°
2026-04-22 19:29 47.28358 11.49910 9154 ft 168 kts 73°
2026-04-22 19:29 47.28675 11.51603 9618 ft 174 kts 73°
2026-04-22 19:29 47.28999 11.53349 10159 ft 180 kts 73°
2026-04-22 19:29 47.29335 11.55152 10651 ft 185 kts 72°
2026-04-22 19:30 47.29563 11.56368 10981 ft 187 kts 72°
2026-04-22 19:30 47.30024 11.58857 11654 ft 190 kts 73°
2026-04-22 19:30 47.30349 11.60742 12168 ft 190 kts 73°
2026-04-22 19:30 47.30673 11.62630 12685 ft 190 kts 72°
2026-04-22 19:31 47.30999 11.64512 13215 ft 190 kts 72°
2026-04-22 19:31 47.31327 11.66401 13758 ft 191 kts 72°
2026-04-22 19:31 47.31661 11.68307 14314 ft 193 kts 71°
2026-04-22 19:31 47.31997 11.70224 14803 ft 193 kts 71°
2026-04-22 19:32 47.32333 11.72142 15300 ft 194 kts 70°
2026-04-22 19:32 47.32669 11.74063 15812 ft 194 kts 71°
2026-04-22 19:32 47.33009 11.75995 16222 ft 200 kts 71°
2026-04-22 19:32 47.33379 11.78075 16265 ft 219 kts 71°
2026-04-22 19:33 47.33771 11.80319 16320 ft 230 kts 71°
2026-04-22 19:33 47.34146 11.82523 17008 ft 212 kts 71°
2026-04-22 19:33 47.34491 11.84548 17818 ft 196 kts 71°
2026-04-22 19:33 47.34834 11.86498 18308 ft 199 kts 70°
2026-04-22 19:34 47.35184 11.88484 18697 ft 202 kts 71°
2026-04-22 19:34 47.35533 11.90476 19053 ft 204 kts 71°
2026-04-22 19:34 47.35888 11.92512 19416 ft 206 kts 70°
2026-04-22 19:34 47.36248 11.94564 19802 ft 207 kts 70°
2026-04-22 19:35 47.36608 11.96633 20182 ft 209 kts 71°
2026-04-22 19:35 47.36970 11.98720 20560 ft 211 kts 70°
2026-04-22 19:35 47.37331 12.00815 20934 ft 211 kts 70°
2026-04-22 19:35 47.37693 12.02914 21319 ft 213 kts 70°
2026-04-22 19:36 47.38061 12.05043 21674 ft 215 kts 71°
2026-04-22 19:36 47.38429 12.07189 22012 ft 216 kts 71°
2026-04-22 19:36 47.38795 12.09338 22366 ft 216 kts 71°
2026-04-22 19:36 47.39162 12.11490 22713 ft 216 kts 71°
2026-04-22 19:37 47.39529 12.13644 23079 ft 217 kts 71°
2026-04-22 19:37 47.39896 12.15800 23444 ft 217 kts 71°
2026-04-22 19:37 47.40264 12.17954 23816 ft 216 kts 71°
2026-04-22 19:37 47.40631 12.20106 24125 ft 216 kts 71°
2026-04-22 19:38 47.40997 12.22254 24433 ft 216 kts 71°
2026-04-22 19:38 47.41364 12.24398 24743 ft 215 kts 71°
2026-04-22 19:38 47.41729 12.26537 25065 ft 215 kts 71°
2026-04-22 19:38 47.42092 12.28671 25386 ft 214 kts 71°
2026-04-22 19:39 47.42455 12.30805 25709 ft 214 kts 71°
2026-04-22 19:39 47.42815 12.32930 26037 ft 213 kts 71°
2026-04-22 19:39 47.43180 12.35075 26260 ft 218 kts 71°
2026-04-22 19:39 47.43553 12.37268 26470 ft 222 kts 71°
2026-04-22 19:40 47.43932 12.39501 26681 ft 226 kts 71°
2026-04-22 19:40 47.44314 12.41765 26885 ft 228 kts 71°
2026-04-22 19:40 47.44698 12.44052 27089 ft 230 kts 71°
2026-04-22 19:40 47.45082 12.46358 27260 ft 234 kts 71°
2026-04-22 19:41 47.45479 12.48730 27286 ft 242 kts 71°
2026-04-22 19:41 47.45889 12.51175 27291 ft 249 kts 72°
2026-04-22 19:41 47.46308 12.53685 27291 ft 254 kts 72°
2026-04-22 19:41 47.46733 12.56241 27295 ft 258 kts 72°
2026-04-22 19:42 47.47163 12.58833 27298 ft 261 kts 72°
2026-04-22 19:42 47.47596 12.61448 27299 ft 263 kts 72°
2026-04-22 19:42 47.48031 12.64078 27295 ft 264 kts 72°
2026-04-22 19:42 47.48466 12.66711 27296 ft 264 kts 72°
2026-04-22 19:43 47.49343 12.72015 27301 ft 266 kts 72°
2026-04-22 19:43 47.49784 12.74685 27301 ft 267 kts 72°
2026-04-22 19:43 47.50227 12.77365 27303 ft 269 kts 72°
2026-04-22 19:44 47.50669 12.80042 27286 ft 268 kts 73°
2026-04-22 19:44 47.51108 12.82709 27294 ft 266 kts 73°
2026-04-22 19:44 47.51536 12.85327 27300 ft 265 kts 73°
2026-04-22 19:44 47.51968 12.87965 27292 ft 263 kts 73°
2026-04-22 19:45 47.52396 12.90588 27295 ft 262 kts 73°
2026-04-22 19:45 47.52825 12.93208 27292 ft 261 kts 73°
2026-04-22 19:45 47.53252 12.95817 27293 ft 261 kts 73°
2026-04-22 19:45 47.53679 12.98429 27299 ft 260 kts 73°
2026-04-22 19:46 47.54103 13.01031 27299 ft 260 kts 73°
2026-04-22 19:46 47.54527 13.03635 27295 ft 260 kts 73°
2026-04-22 19:46 47.54950 13.06233 27320 ft 260 kts 73°
2026-04-22 19:46 47.55372 13.08835 27308 ft 260 kts 73°
2026-04-22 19:47 47.55794 13.11437 27304 ft 260 kts 73°
2026-04-22 19:47 47.56214 13.14038 27298 ft 260 kts 73°
2026-04-22 19:47 47.56498 13.15799 27298 ft 260 kts 73°
2026-04-22 19:47 47.57053 13.19243 27288 ft 259 kts 73°
2026-04-22 19:48 47.57471 13.21843 27297 ft 259 kts 73°
2026-04-22 19:48 47.57889 13.24442 27296 ft 259 kts 73°
2026-04-22 19:48 47.58305 13.27037 27290 ft 259 kts 73°
2026-04-22 19:48 47.58720 13.29629 27298 ft 259 kts 73°
2026-04-22 19:49 47.59136 13.32224 27300 ft 259 kts 73°
2026-04-22 19:49 47.59551 13.34821 27294 ft 259 kts 73°
2026-04-22 19:49 47.59966 13.37413 27292 ft 258 kts 73°
2026-04-22 19:49 47.60379 13.39998 27292 ft 258 kts 73°
2026-04-22 19:50 47.60790 13.42576 27289 ft 257 kts 73°
2026-04-22 19:50 47.61200 13.45155 27297 ft 257 kts 73°
2026-04-22 19:50 47.61610 13.47733 27290 ft 257 kts 74°
2026-04-22 19:50 47.62018 13.50312 27294 ft 257 kts 73°
2026-04-22 19:51 47.62424 13.52885 27312 ft 257 kts 74°
2026-04-22 19:51 47.62830 13.55464 27306 ft 257 kts 74°
2026-04-22 19:51 47.63237 13.58046 27295 ft 257 kts 75°
2026-04-22 19:51 47.63642 13.60628 27295 ft 257 kts 75°
2026-04-22 19:52 47.64045 13.63200 27290 ft 256 kts 75°
2026-04-22 19:52 47.64446 13.65760 27285 ft 254 kts 75°
2026-04-22 19:52 47.64845 13.68313 27288 ft 253 kts 75°
2026-04-22 19:52 47.65241 13.70854 27294 ft 253 kts 75°
2026-04-22 19:53 47.65637 13.73387 27299 ft 253 kts 75°
2026-04-22 19:53 47.66033 13.75934 27289 ft 253 kts 75°
2026-04-22 19:53 47.66293 13.77609 27281 ft 252 kts 75°
2026-04-22 19:53 47.66820 13.80995 27296 ft 252 kts 75°
2026-04-22 19:54 47.67212 13.83527 27296 ft 252 kts 75°
2026-04-22 19:54 47.67605 13.86059 27296 ft 252 kts 75°
2026-04-22 19:54 47.67996 13.88599 27296 ft 252 kts 75°
2026-04-22 19:54 47.68388 13.91137 27291 ft 253 kts 75°
2026-04-22 19:55 47.68777 13.93676 27287 ft 252 kts 75°
2026-04-22 19:55 47.69165 13.96215 27291 ft 252 kts 75°
2026-04-22 19:55 47.69554 13.98756 27292 ft 252 kts 75°
2026-04-22 19:55 47.69941 14.01296 27300 ft 252 kts 76°
2026-04-22 19:56 47.70328 14.03828 27290 ft 251 kts 76°
2026-04-22 19:56 47.70714 14.06358 27289 ft 251 kts 76°
2026-04-22 19:56 47.71099 14.08881 27294 ft 251 kts 76°
2026-04-22 19:56 47.71485 14.11413 27289 ft 251 kts 76°
2026-04-22 19:57 47.71869 14.13943 27284 ft 251 kts 76°
2026-04-22 19:57 47.72252 14.16467 27290 ft 250 kts 76°
2026-04-22 19:57 47.72635 14.18993 27291 ft 251 kts 76°
2026-04-22 19:57 47.73017 14.21519 27283 ft 250 kts 76°
2026-04-22 19:58 47.73398 14.24038 27285 ft 250 kts 76°
2026-04-22 19:58 47.73778 14.26557 27294 ft 250 kts 76°
2026-04-22 19:58 47.74157 14.29076 27287 ft 250 kts 76°
2026-04-22 19:58 47.74536 14.31602 27284 ft 250 kts 76°
2026-04-22 19:59 47.74915 14.34122 27276 ft 249 kts 76°
2026-04-22 20:00 47.77139 14.49034 27199 ft 246 kts 77°
2026-04-22 20:00 47.77506 14.51514 26932 ft 245 kts 77°
2026-04-22 20:01 47.77869 14.53979 26668 ft 243 kts 77°
2026-04-22 20:01 47.78227 14.56400 26412 ft 243 kts 77°
2026-04-22 20:01 47.78588 14.58850 26141 ft 244 kts 76°
2026-04-22 20:01 47.78951 14.61312 25853 ft 243 kts 76°
2026-04-22 20:02 47.79312 14.63772 25579 ft 243 kts 76°
2026-04-22 20:02 47.79672 14.66225 25299 ft 243 kts 76°
2026-04-22 20:02 47.80033 14.68681 25026 ft 243 kts 76°
2026-04-22 20:02 47.80392 14.71129 24759 ft 243 kts 76°
2026-04-22 20:03 47.80750 14.73581 24493 ft 242 kts 76°
2026-04-22 20:03 47.81108 14.76030 24239 ft 243 kts 76°
2026-04-22 20:03 47.81468 14.78491 23973 ft 245 kts 76°
2026-04-22 20:03 47.81774 14.80986 23648 ft 246 kts 82°
2026-04-22 20:04 47.81780 14.83527 23295 ft 244 kts 86°
2026-04-22 20:04 47.81822 14.86037 22968 ft 242 kts 84°
2026-04-22 20:04 47.81906 14.88536 22634 ft 241 kts 83°
2026-04-22 20:04 47.81998 14.91022 22304 ft 240 kts 83°
2026-04-22 20:05 47.82089 14.93510 22011 ft 241 kts 83°
2026-04-22 20:05 47.82147 14.95156 21792 ft 241 kts 83°
2026-04-22 20:05 47.82231 14.97639 21476 ft 241 kts 83°
2026-04-22 20:05 47.82314 15.00126 21160 ft 241 kts 83°
2026-04-22 20:06 47.82391 15.02613 20838 ft 241 kts 83°
2026-04-22 20:06 47.82464 15.05102 20537 ft 241 kts 83°
2026-04-22 20:06 47.82558 15.07573 20237 ft 237 kts 81°
2026-04-22 20:06 47.82682 15.09987 19960 ft 231 kts 81°
2026-04-22 20:07 47.82814 15.12354 19723 ft 229 kts 80°
2026-04-22 20:07 47.82952 15.14726 19474 ft 231 kts 80°
2026-04-22 20:07 47.83091 15.17111 19234 ft 232 kts 80°
2026-04-22 20:07 47.83228 15.19505 18990 ft 233 kts 80°
2026-04-22 20:08 47.83364 15.21908 18747 ft 233 kts 80°
2026-04-22 20:08 47.83498 15.24314 18492 ft 233 kts 80°
2026-04-22 20:08 47.83630 15.26719 18214 ft 233 kts 80°
2026-04-22 20:08 47.83761 15.29114 17999 ft 231 kts 80°
2026-04-22 20:09 47.83890 15.31484 17839 ft 228 kts 80°
2026-04-22 20:09 47.84017 15.33831 17692 ft 227 kts 80°
2026-04-22 20:09 47.84144 15.36173 17554 ft 226 kts 80°
2026-04-22 20:09 47.84271 15.38513 17435 ft 228 kts 80°
2026-04-22 20:10 47.84401 15.40872 17307 ft 229 kts 80°
2026-04-22 20:10 47.84527 15.43238 17171 ft 230 kts 80°
2026-04-22 20:10 47.84653 15.45605 17017 ft 229 kts 80°
2026-04-22 20:10 47.84778 15.47962 16886 ft 228 kts 80°
2026-04-22 20:11 47.84902 15.50320 16758 ft 229 kts 80°
2026-04-22 20:11 47.85026 15.52681 16629 ft 229 kts 80°
2026-04-22 20:11 47.85150 15.55044 16500 ft 229 kts 80°
2026-04-22 20:11 47.85273 15.57410 16363 ft 229 kts 80°
2026-04-22 20:12 47.85397 15.59775 16236 ft 229 kts 80°
2026-04-22 20:12 47.85519 15.62134 16091 ft 228 kts 80°
2026-04-22 20:12 47.85641 15.64486 15970 ft 228 kts 80°
2026-04-22 20:12 47.85762 15.66841 15843 ft 228 kts 80°
2026-04-22 20:13 47.85883 15.69189 15714 ft 228 kts 80°
2026-04-22 20:13 47.86002 15.71541 15582 ft 228 kts 80°
2026-04-22 20:13 47.86121 15.73891 15444 ft 227 kts 80°
2026-04-22 20:13 47.86240 15.76237 15321 ft 227 kts 80°
2026-04-22 20:14 47.86358 15.78571 15205 ft 225 kts 80°
2026-04-22 20:14 47.86474 15.80889 15081 ft 224 kts 80°
2026-04-22 20:14 47.86589 15.83202 14969 ft 224 kts 80°
2026-04-22 20:14 47.86696 15.85511 14849 ft 223 kts 80°
2026-04-22 20:15 47.86814 15.87812 14716 ft 223 kts 80°
2026-04-22 20:15 47.86933 15.90116 14590 ft 223 kts 80°
2026-04-22 20:15 47.87057 15.92421 14389 ft 225 kts 79°
2026-04-22 20:15 47.87179 15.94744 14167 ft 223 kts 81°
2026-04-22 20:16 47.87107 15.97041 13868 ft 221 kts 83°
2026-04-22 20:16 47.87261 15.99296 13568 ft 219 kts 76°
2026-04-22 20:16 47.87504 16.01523 13247 ft 214 kts 75°
2026-04-22 20:16 47.87749 16.03655 12872 ft 213 kts 75°
2026-04-22 20:17 47.88001 16.05856 12395 ft 218 kts 75°
2026-04-22 20:17 47.88257 16.08091 11982 ft 216 kts 75°
2026-04-22 20:17 47.88504 16.10279 11552 ft 214 kts 75°
2026-04-22 20:17 47.88748 16.12460 11146 ft 213 kts 75°
2026-04-22 20:18 47.88989 16.14638 10754 ft 213 kts 75°
2026-04-22 20:18 47.89230 16.16823 10363 ft 214 kts 75°
2026-04-22 20:18 47.89471 16.19007 9958 ft 214 kts 75°
2026-04-22 20:18 47.89711 16.21190 9520 ft 212 kts 75°
2026-04-22 20:19 47.89945 16.23352 9084 ft 211 kts 75°
2026-04-22 20:19 47.90176 16.25503 8660 ft 210 kts 75°
2026-04-22 20:19 47.90403 16.27653 8241 ft 210 kts 75°
2026-04-22 20:19 47.90631 16.29799 7834 ft 209 kts 75°
2026-04-22 20:20 47.90942 16.31902 7429 ft 207 kts 68°
2026-04-22 20:20 47.91368 16.33940 7026 ft 206 kts 66°
2026-04-22 20:20 47.91831 16.35954 6621 ft 205 kts 65°
2026-04-22 20:20 47.92299 16.37956 6215 ft 204 kts 65°
2026-04-22 20:21 47.92782 16.39926 5855 ft 200 kts 64°
2026-04-22 20:21 47.93306 16.41845 5535 ft 201 kts 61°
2026-04-22 20:21 47.93869 16.43767 5382 ft 201 kts 59°
2026-04-22 20:21 47.94495 16.45565 5288 ft 198 kts 56°
2026-04-22 20:22 47.95151 16.47387 5059 ft 201 kts 56°
2026-04-22 20:22 47.95795 16.49189 4836 ft 193 kts 56°
2026-04-22 20:22 47.96439 16.50963 4516 ft 196 kts 56°
2026-04-22 20:22 47.97081 16.52753 4221 ft 195 kts 56°
2026-04-22 20:23 47.97754 16.54485 3961 ft 190 kts 51°
2026-04-22 20:23 47.98546 16.56031 3750 ft 186 kts 43°
2026-04-22 20:23 47.99457 16.57383 3552 ft 184 kts 37°
2026-04-22 20:23 48.00427 16.58667 3337 ft 189 kts 37°
2026-04-22 20:24 48.01443 16.59883 3039 ft 184 kts 31°
2026-04-22 20:24 48.02492 16.60915 2775 ft 172 kts 28°
2026-04-22 20:24 48.03388 16.61511 2383 ft 119 kts
2026-04-22 20:24 48.04216 16.61368 2022 ft 122 kts 345°
2026-04-22 20:25 48.04991 16.60965 1738 ft 130 kts 342°
2026-04-22 20:25 48.05928 16.60512 1623 ft 146 kts 345°
2026-04-22 20:25 48.06906 16.60088 1470 ft 145 kts 346°
2026-04-22 20:25 48.07840 16.59698 1237 ft 136 kts 344°
2026-04-22 20:26 48.08704 16.59318 1043 ft 118 kts 343°
2026-04-22 20:26 48.09430 16.59002 959 ft 102 kts 343°
2026-04-22 20:26 48.10092 16.58685 829 ft 99 kts 333°
2026-04-22 20:26 48.10634 16.58069 738 ft 99 kts 314°
2026-04-22 20:27 48.11016 16.57203 633 ft 100 kts 299°
2026-04-22 20:27 48.11319 16.56294 624 ft 96 kts 299°
2026-04-22 20:27 48.11608 16.55406 621 ft 93 kts 299°
2026-04-22 20:27 48.11855 16.54644 603 ft 65 kts 297°
2026-04-22 20:28 48.12010 16.54176 603 ft 45 kts 297°
2026-04-22 20:28 48.12139 16.53775 603 ft 41 kts 296°
2026-04-22 20:28 48.12237 16.53511 603 ft 11 kts 337°
2026-04-22 20:28 48.12376 16.53589 603 ft 24 kts 28°
2026-04-22 20:29 48.12510 16.53628 603 ft 18 kts 17°
2026-04-22 20:29 48.12644 16.53725 603 ft 27 kts 27°
2026-04-22 20:29 48.12749 16.53801 603 ft 0 kts 20°
2026-04-22 20:29 48.12754 16.53803 603 ft 2 kts 18°
2026-04-22 20:30 48.12787 16.53821 603 ft 7 kts 21°
2026-04-22 20:30 48.12807 16.53804 603 ft 5 kts 210°
2026-04-22 20:30 48.12803 16.53801 603 ft 0 kts 203°